Location: Unspecified
(51.0950°N, 12.9690°E)
Time: 22:43:17
(UTC+00:00)

Cosmos 1825 - Pass Details

Date: 28 October 2021
Orbit: 501 x 504 km, 82.5° (Epoch: 01 December)

Event Time Altitude Azimuth Distance (km) Brightness Sun altitude
Rises 16:38:18 0° 1° (N) 2,612 5.7 -8.2°
Reaches altitude 10° 16:40:53 10° 19° (NNE) 1,723 4.6 -8.6°
Maximum altitude 16:43:41 20° 67° (ENE) 1,233 3.5 -9.1°
Drops below altitude 10° 16:46:28 10° 115° (ESE) 1,713 4.3 -9.5°
Enters shadow 16:47:51 - 127° (SE) 2,161 4.9 -9.7°
